{"data":{"norad_id":59691,"epoch":"2026-05-24T23:19:25.201344Z","epoch_age_seconds":87799,"freshness":"FRESH","line1":"1 59691U 24086K   26144.97181946  .00001547  00000+0  65724-4 0  9996","line2":"2 59691  43.0060 352.9698 0001361 255.2102 104.8599 15.27577843115737","mean_motion":15.27577843,"eccentricity":0.0001361,"inclination_deg":43.006,"raan_deg":352.9698,"arg_perigee_deg":255.2102,"mean_anomaly_deg":104.8599,"bstar":6.5724e-5,"rev_number":11573,"period_min":94.266881822009,"perigee_km":482.12174657451,"apogee_km":483.98936318795,"semimajor_km":6861.1925548812,"source":"CELESTRAK","updated_at":"2026-05-25T13:38:19.024898Z"}}